ARIANE 5 R/B, 26721

Orbit data source: Space-Track

ARIANE 5 R/B, 26721 is space debris in HEO originally from a launch on Thu, 08 Mar 2001 UTC launched from the French Guiana (FRGUI). Debris objects in space refer to the collection of defunct objects orbiting the Earth. Examples of debris include non-operational satellites, rocket bodies, and fragments generated from explosions, collisions, or faulty payload assembly.

Loading next visibility...
ARIANE 5 R/B details
Identifier
26721, 2001-011C
Orbit
HEO
Last TLE update17 hours ago
Origin
Flag of FRArianespace (FR)
ManufacturerAstrium
MissionSpacecraft
Bus & MotorEPS, AESTUS
Mass1,190 kg wet, 1,190 kg dry
Launch date (UTC)
2001-03-08 (24 years ago)
Launch vehicleUnknown
Launch site
French Guiana (FRGUI)
Object type
Payload
Rocket body
Debris
Shape & HBRCone + Cyl, 5.46 m
Radar Cross Section25.858 m², Large (>1 m²)

Expand to show TLE details & history

TLE from 17 hours ago
0 ARIANE 5 R/B
1 26721U 01011C   25035.55710389 -.00000150  00000-0  17569-2 0  9991
2 26721   1.6664  81.8662 7056592 233.9040 351.2535  2.24569015196238
Epoch: 2025-02-04T13:22Z
Definitive object data (Epoch: 2025-02-04T13:22:13.776Z)
Latitude0.21801°
Longitude-80.41301°
Altitude2,784.293 km
Speed8.415 km/s
True Right ascension17h 00m 25s
True Declination0° 13' 01"
Sunlit
Object was in daylight at TLE epoch
Visualization TLE readout
Latitude1.50844°
Longitude170.0895°
Altitude34,281.451 km
Speed1.851 km/s
Apparent Right ascension09h 49m 26s
Apparent Declination-4° 46' 52"
Sunlit
Object is in daylight
Visualization observer readout
Local Sidereal Time08:50:41
Azimuth159.685° S
Elevation43.303°
Doppler factor1
Orbital elements
Apogee altitude35,644.47 km
Perigee altitude873.586 km
Semi-major axis24,637.165 km
Eccentricity0.7056592
Inclination1.6664°
RAAN81.8662°
Arg. of periapsis233.904°
True anomaly299.42845°
Mean anomaly351.2535°
Eccentric anomaly332.72603°
Mean motion0.56125 °/min
BSTAR0.0017569
Orbital period641.42 mins
Loading maneuver chart data...
Loading historical data...
Loading historical data...
Loading historical data...
Loading historical data...
Loading historical data...
Loading historical data...
Loading historical data...
Other satellites on launch #11 in the year 2001 (2001-03-08 UTC)

ARIANE 5 R/B Visibility forecast

Observer location: undefined°, undefined

Span
Click to sort rows by Start time (UTC) header in descending order
Start Az.
Max El. time (UTC)
Max El. Az.
Max El.
End time (UTC)
End Az.
220 mins2025-02-05 06:48:27.145Z159.693° S2025-02-05 07:46:27.145Z167.923° S34.801°2025-02-05 10:28:27.145Z132.302° SE
285 mins2025-02-06 02:03:27.145Z105.017° ESE2025-02-06 05:44:27.145Z122.118° SE22.806°2025-02-06 06:48:27.145Z120.941° SE
|